Regional Weather Roundup
Issued by NWS Northern Indiana

Home | Current Version | Previous Version | Text Only | Print | Product List | Glossary Off
Versions: 1 2 3 4 5 6 7 8 9 10 11 12 13 14 15 16 17 18 19 20 21 22 23 24 25 26 27 28 29 30 31 32 33 34 35 36 37 38 39 40 41 42 43 44 45 46 47 48 49 50

693
ASUS43 KIWX 301200
RWRIWX

KIWX WEATHER ROUNDUP
NATIONAL WEATHER SERVICE NORTHERN INDIANA
800 AM EDT MON MAY 30 2016

NOTE: "FAIR" INDICATES FEW OR NO CLOUDS BELOW 12,000 FEET WITH NO
SIGNIFICANT WEATHER AND/OR OBSTRUCTIONS TO VISIBILITY.

* THESE STATIONS ARE NOT UNDER NWS QUALITY CONTROL. THEY ALSO MAY NOT
  REPORT WEATHER SUCH AS PRECIPITATION OR FOG.

INZ001>027-301300-
NORTHERN INDIANA

CITY           SKY/WX    TMP DP  RH WIND       PRES   REMARKS
GARY*          MOSUNNY   66  66 100 SW5       30.04R
SOUTH BEND     SUNNY     67  59  75 CALM      30.04R
6HR MIN TEMP:  58; 6HR MAX TEMP:  67;

GOSHEN         SUNNY     66  58  75 SW3       30.04R
6HR MIN TEMP:  57; 6HR MAX TEMP:  66;

ANGOLA*          N/A     64  57  77 CALM      30.03S
FORT WAYNE     CLOUDY    68  58  70 SW3       30.05R
6HR MIN TEMP:  58; 6HR MAX TEMP:  68;

PERU/GRISSOM   CLOUDY    66  61  84 SW3       30.05R
6HR MIN TEMP:  58; 6HR MAX TEMP:  66;


$$
INZ028>050-301300-
CENTRAL INDIANA

CITY           SKY/WX    TMP DP  RH WIND       PRES   REMARKS
LAFAYETTE      CLOUDY    62  60  93 CALM      30.05R
6HR MIN TEMP:  57; 6HR MAX TEMP:  63;

KOKOMO*        CLOUDY    66  57  72 W3        30.06R
6HR MIN TEMP:  57; 6HR MAX TEMP:  66;

MUNCIE*        CLOUDY    69  57  65 CALM      30.06S
6HR MIN TEMP:  60; 6HR MAX TEMP:  69;

INDIANAPOLIS   CLOUDY    68  58  70 CALM      30.05R
6HR MIN TEMP:  61; 6HR MAX TEMP:  69;


$$
MIZ043>046-050>051-056>058-064>065-071>073-077>080-301300-
SOUTHWEST LOWER MICHIGAN

CITY           SKY/WX    TMP DP  RH WIND       PRES   REMARKS
BATTLE CREEK   SUNNY     65  58  78 SW5       30.03R
6HR MIN TEMP:  59; 6HR MAX TEMP:  65;

BENTON HARBOR  MOSUNNY   65  58  78 W6        30.03R
6HR MIN TEMP:  58; 6HR MAX TEMP:  67;

COLDWATER*     SUNNY     65  59  80 W3        30.03S
6HR MIN TEMP:  58; 6HR MAX TEMP:  65;

HILLSDALE*     SUNNY     67  56  67 W5        30.03R
6HR MIN TEMP:  60; 6HR MAX TEMP:  67;

HOLLAND        SUNNY     64  58  80 SW3       30.02S
6HR MIN TEMP:  58; 6HR MAX TEMP:  65;

GRAND RAPIDS   MOSUNNY   66  58  75 SW6       30.01S
6HR MIN TEMP:  59; 6HR MAX TEMP:  66;

KALAMAZOO      SUNNY     65  57  75 W5        30.03S
6HR MIN TEMP:  59; 6HR MAX TEMP:  65;

STURGIS*       SUNNY     65  59  79 W3        30.03R
6HR MIN TEMP:  57; 6HR MAX TEMP:  65;

THREE RIVERS*  FAIR      65  60  84 CALM      30.04R

$$
OHZ001>008-015>018-024>025-301300-
NORTHWEST OHIO

CITY           SKY/WX    TMP DP  RH WIND       PRES   REMARKS
DEFIANCE       SUNNY     68  58  70 SW5       30.03S
6HR MIN TEMP:  59; 6HR MAX TEMP:  68;

FINDLAY        SUNNY     68  58  70 CALM      30.03R
6HR MIN TEMP:  59; 6HR MAX TEMP:  68;

TOLEDO EXPRESS SUNNY     67  57  70 W7        30.02R
6HR MIN TEMP:  57; 6HR MAX TEMP:  67;

TOLEDO METCALF SUNNY     67  57  70 SW7       30.03R
6HR MIN TEMP:  61; 6HR MAX TEMP:  67;

LIMA           MOSUNNY   67  59  75 SW3       30.05R
6HR MIN TEMP:  61; 6HR MAX TEMP:  67;


$$
AND FOR LAKE MICHIGAN COASTAL AND OPEN LAKE BUOY OBSERVATIONS

STATION/POSITION TEMP    WIND        PRES    VSBY  WAVE
                 AIR SEA DIR/SP/G                  HT/PER
                 (F)     (DEG/KT/KT) (MB)    (MI)  (FT/S)
CALUMET HARBOR    66     240/  4/  6 1016.1R
MICHIGAN CITY     67     180/  7/  8   N/A
BURNS HARBOR      66     180/  5/  9 1017.3R
SAINT JOSEPH      64     190/  5/  6 1017.6R
SOUTH LAKE BUOY   56 51  240/  6/  8 1015.7          0
4 MI NW BRIDGMAN  62 61  250/  4/  8   N/A           1
MICHIGAN CITY     62 58  210/  6/  8   N/A           0

$$
&&




USA.gov is the U.S. government's official web portal to all federal, state and local government web resources and services.